EDT,Max TemperatureF,Mean TemperatureF,Min TemperatureF,Max Dew PointF,MeanDew PointF,Min DewpointF,Max Humidity, Mean Humidity, Min Humidity, Max Sea Level PressureIn, Mean Sea Level PressureIn, Min Sea Level PressureIn, Max VisibilityMiles, Mean VisibilityMiles, Min VisibilityMiles, Max Wind SpeedMPH, Mean Wind SpeedMPH, Max Gust SpeedMPH,PrecipitationIn, CloudCover, Events, WindDirDegrees
2012-10-1,66,57,48,52,49,46,93,77,60,29.96,29.80,29.71,10,10,10,16,9,26,0.00,4,,231
2012-10-2,69,60,52,59,55,50,96,84,56,30.08,30.04,29.96,10,9,2,8,3,,0.09,6,Rain,230
2012-10-3,64,62,59,63,60,58,100,95,90,30.19,30.11,30.04,10,3,1,8,2,,0.08,8,Rain,40
2012-10-4,62,59,57,61,58,57,100,94,88,30.20,30.12,30.03,10,5,1,6,3,,0.03,8,Rain,27
2012-10-5,75,65,55,61,57,54,100,86,48,30.06,30.01,29.94,10,5,0,8,1,,0.01,2,Fog,255
2012-10-6,77,64,48,61,54,41,93,74,54,29.96,29.84,29.72,10,9,5,18,6,29,0.00,2,,233
2012-10-7,57,48,41,46,41,38,93,75,53,30.11,30.06,29.97,10,10,5,7,4,,0.16,4,Rain,238
2012-10-8,55,46,37,45,40,36,100,89,54,30.34,30.18,30.07,10,5,0,7,1,,0.02,2,Fog,280
2012-10-9,57,51,45,49,46,43,93,82,64,30.33,30.25,30.16,10,10,2,15,4,18,0.00,8,,56
2012-10-10,60,53,46,59,52,43,100,94,80,30.16,29.93,29.72,10,5,1,12,3,30,0.20,7,Rain,80
2012-10-11,57,48,39,44,35,32,87,63,39,30.16,30.06,29.84,10,10,10,18,9,28,0.00,1,,259
2012-10-12,53,44,33,43,33,22,87,66,39,30.40,30.14,30.03,10,10,9,15,7,25,0.04,3,Rain,276
2012-10-13,51,38,26,30,25,20,85,57,29,30.50,30.43,30.33,10,10,10,10,4,21,0.00,0,,255
2012-10-14,64,54,44,54,48,33,93,79,65,30.33,30.12,29.96,10,10,6,13,7,20,0.20,5,Rain,195
2012-10-15,75,66,59,61,58,54,94,79,59,29.93,29.73,29.59,10,10,10,21,10,30,0.00,4,,200
2012-10-16,59,49,36,61,43,33,96,73,45,29.93,29.69,29.58,10,9,2,21,9,31,0.34,4,Rain,287
2012-10-17,61,46,30,39,34,28,96,72,34,30.04,29.98,29.91,10,10,9,7,2,,0.00,0,Snow,284
2012-10-18,64,50,35,48,42,33,97,79,43,30.16,30.10,30.04,10,10,10,13,2,,0.00,1,,128
2012-10-19,66,56,46,64,57,44,100,91,65,30.10,29.89,29.72,10,7,2,20,6,24,0.20,8,Rain-Thunderstorm,106
2012-10-20,73,64,54,65,59,42,100,83,41,29.79,29.70,29.63,10,8,1,15,7,23,1.18,5,Rain,182
2012-10-21,63,52,43,42,40,36,89,63,39,29.91,29.86,29.79,10,10,10,16,6,24,0.00,2,,255
2012-10-22,64,54,42,43,40,37,89,61,37,30.04,29.95,29.91,10,10,10,18,8,26,0.00,1,,269
2012-10-23,64,50,37,46,41,36,93,74,43,30.15,30.09,30.03,10,10,10,10,2,,0.00,3,,290
2012-10-24,54,48,39,43,37,30,93,65,52,30.25,30.21,30.17,10,10,10,6,2,,0.00,5,,23
2012-10-25,64,50,37,43,38,30,97,66,29,30.33,30.29,30.26,10,10,10,9,1,,0.00,4,,144
2012-10-26,66,52,39,53,47,38,97,80,60,30.29,30.22,30.15,10,10,10,9,2,,0.00,2,,218
2012-10-27,66,53,42,54,46,41,100,89,65,30.15,30.08,30.00,10,6,0,8,1,,0.00,4,Fog,71
2012-10-28,54,51,48,52,49,46,97,91,82,30.04,29.93,29.81,10,5,2,17,9,25,0.10,7,Rain,41
2012-10-29,62,56,51,61,56,50,100,97,88,29.79,29.47,29.21,10,3,1,45,20,67,1.60,8,Rain,63
2012-10-30,66,57,48,61,56,48,100,94,66,29.59,29.51,29.34,10,6,0,18,10,28,0.73,7,Fog-Rain,108
2012-10-31,55,50,46,55,49,39,100,91,72,29.60,29.52,29.45,10,6,0,10,3,18,0.11,7,Fog-Rain,183